Location: Gorze? G�rny
(49.8500°N, 19.5000°E)
Time: 03:21:20
(UTC+00:00)

Meteor 1-18 Rocket - Pass Details

Date: 13 May 2021
Orbit: 837 x 909 km, 81.2° (Epoch: 20 June)

Event Time Altitude Azimuth Distance (km) Brightness Sun altitude
Exits shadow 21:22:30 36° 168° (SSE) 1,316 4.7 -19.5°
Maximum altitude 21:24:46 67° 98° (E) 918 4.2 -19.6°
Drops below altitude 10° 21:30:19 10° 17° (NNE) 2,470 7.4 -19.9°
Sets 21:32:44 0° 15° (NNE) 3,405 8.3 -20.0°
